TimeCDT,TemperatureF,Dew PointF,Humidity,Sea Level PressureIn,VisibilityMPH,Wind Direction,Wind SpeedMPH,Gust SpeedMPH,PrecipitationIn,Events,Conditions,WindDirDegrees,DateUTC
12:15 AM,41.0,41.0,100,29.90,5.0,Calm,Calm,-,N/A,,Overcast,0,2013-04-10 05:15:00
12:35 AM,41.0,41.0,100,29.90,5.0,Calm,Calm,-,N/A,,Overcast,0,2013-04-10 05:35:00
12:55 AM,41.0,41.0,100,29.90,5.0,Calm,Calm,-,N/A,,Overcast,0,2013-04-10 05:55:00
1:15 AM,42.8,41.0,93,29.91,5.0,Calm,Calm,-,N/A,,Overcast,0,2013-04-10 06:15:00
1:35 AM,42.8,41.0,93,29.91,5.0,WNW,3.5,-,N/A,,Overcast,290,2013-04-10 06:35:00
1:55 AM,42.8,41.0,93,29.88,5.0,Calm,Calm,-,N/A,,Overcast,0,2013-04-10 06:55:00
2:15 AM,42.8,41.0,93,29.87,5.0,Calm,Calm,-,N/A,,Overcast,0,2013-04-10 07:15:00
2:35 AM,42.8,41.0,93,29.86,5.0,Calm,Calm,-,N/A,,Overcast,0,2013-04-10 07:35:00
2:55 AM,42.8,41.0,93,29.86,7.0,Calm,Calm,-,N/A,,Overcast,0,2013-04-10 07:55:00
3:15 AM,42.8,41.0,93,29.87,7.0,Calm,Calm,-,N/A,,Overcast,0,2013-04-10 08:15:00
3:35 AM,42.8,41.0,93,29.87,7.0,Calm,Calm,-,N/A,,Overcast,0,2013-04-10 08:35:00
3:55 AM,42.8,41.0,93,29.86,5.0,Calm,Calm,-,N/A,,Overcast,0,2013-04-10 08:55:00
4:15 AM,42.8,41.0,93,29.86,5.0,Calm,Calm,-,N/A,,Overcast,0,2013-04-10 09:15:00
4:35 AM,42.8,41.0,93,29.87,5.0,NW,4.6,-,N/A,,Overcast,320,2013-04-10 09:35:00
4:55 AM,41.0,39.2,93,29.86,5.0,North,4.6,-,N/A,,Overcast,10,2013-04-10 09:55:00
5:15 AM,41.0,41.0,100,29.85,7.0,NE,5.8,-,N/A,,Overcast,50,2013-04-10 10:15:00
5:35 AM,42.8,41.0,93,29.85,7.0,North,5.8,-,N/A,,Overcast,10,2013-04-10 10:35:00
5:55 AM,42.8,41.0,93,29.85,10.0,North,5.8,-,N/A,,Overcast,360,2013-04-10 10:55:00
6:15 AM,42.8,41.0,93,29.85,10.0,NE,4.6,-,N/A,,Overcast,40,2013-04-10 11:15:00
6:35 AM,42.8,41.0,93,29.85,10.0,Calm,Calm,-,N/A,,Overcast,0,2013-04-10 11:35:00
6:55 AM,42.8,41.0,93,29.85,10.0,Calm,Calm,-,N/A,,Overcast,0,2013-04-10 11:55:00
7:15 AM,42.8,41.0,93,29.86,10.0,NNW,3.5,-,N/A,,Overcast,330,2013-04-10 12:15:00
7:35 AM,42.8,41.0,93,29.88,10.0,NW,5.8,-,N/A,Rain,Light Rain,310,2013-04-10 12:35:00
7:55 AM,41.0,39.2,93,29.88,3.0,NNW,9.2,-,N/A,Rain,Light Rain,340,2013-04-10 12:55:00
8:15 AM,41.0,39.2,93,29.88,3.0,North,8.1,-,N/A,Rain,Light Rain,360,2013-04-10 13:15:00
8:35 AM,41.0,39.2,93,29.90,4.0,North,12.7,17.3,N/A,,Overcast,350,2013-04-10 13:35:00
8:55 AM,37.4,37.4,100,29.91,2.5,North,13.8,20.7,N/A,Rain,Light Rain,10,2013-04-10 13:55:00
9:15 AM,37.4,37.4,100,29.89,5.0,ENE,8.1,19.6,N/A,,Light Drizzle,70,2013-04-10 14:15:00
9:35 AM,39.2,37.4,93,29.89,10.0,East,4.6,-,N/A,,Overcast,80,2013-04-10 14:35:00
9:55 AM,41.0,39.2,93,29.86,5.0,East,5.8,-,N/A,,Light Drizzle,100,2013-04-10 14:55:00
10:15 AM,41.0,41.0,100,29.86,10.0,ENE,5.8,-,N/A,,Overcast,70,2013-04-10 15:15:00
10:35 AM,42.8,41.0,93,29.86,10.0,Calm,Calm,-,N/A,,Overcast,0,2013-04-10 15:35:00
10:55 AM,42.8,42.8,100,29.88,10.0,Calm,Calm,-,N/A,,Overcast,0,2013-04-10 15:55:00
11:15 AM,44.6,44.6,100,29.89,3.0,Calm,Calm,-,N/A,,Light Drizzle,0,2013-04-10 16:15:00
11:35 AM,46.4,44.6,93,29.86,4.0,SE,6.9,-,N/A,,Overcast,140,2013-04-10 16:35:00
11:55 AM,48.2,46.4,93,29.86,7.0,South,4.6,-,N/A,,Overcast,170,2013-04-10 16:55:00
12:15 PM,46.4,44.6,93,29.86,7.0,NW,10.4,-,N/A,,Overcast,310,2013-04-10 17:15:00
12:35 PM,41.0,39.2,93,29.90,10.0,NNW,12.7,17.3,N/A,,Overcast,340,2013-04-10 17:35:00
12:55 PM,39.2,37.4,93,29.92,10.0,North,12.7,21.9,N/A,,Overcast,360,2013-04-10 17:55:00
1:15 PM,39.2,37.4,93,29.88,10.0,NE,5.8,18.4,N/A,,Overcast,40,2013-04-10 18:15:00
1:35 PM,41.0,39.2,93,29.90,7.0,North,6.9,-,N/A,,Overcast,350,2013-04-10 18:35:00
1:55 PM,41.0,37.4,87,29.92,10.0,North,10.4,16.1,N/A,,Overcast,10,2013-04-10 18:55:00
2:15 PM,39.2,37.4,93,29.94,7.0,North,8.1,-,N/A,,Overcast,10,2013-04-10 19:15:00
2:35 PM,39.2,37.4,93,29.85,7.0,NE,15.0,-,N/A,Rain,Light Rain,40,2013-04-10 19:35:00
2:55 PM,39.2,37.4,93,29.92,7.0,NNE,6.9,-,N/A,Rain,Light Rain,20,2013-04-10 19:55:00
3:15 PM,39.2,37.4,93,29.89,10.0,NNE,4.6,-,N/A,,Overcast,30,2013-04-10 20:15:00
3:35 PM,39.2,37.4,93,29.91,10.0,North,3.5,-,N/A,,Overcast,360,2013-04-10 20:35:00
3:55 PM,39.2,37.4,93,29.89,10.0,Calm,Calm,-,N/A,,Overcast,0,2013-04-10 20:55:00
4:15 PM,41.0,41.0,100,29.91,7.0,Calm,Calm,-,N/A,,Overcast,0,2013-04-10 21:15:00
4:35 PM,42.8,41.0,93,29.92,10.0,NW,5.8,-,N/A,Rain,Light Rain,320,2013-04-10 21:35:00
4:55 PM,41.0,39.2,93,29.92,10.0,North,4.6,-,N/A,,Overcast,350,2013-04-10 21:55:00
5:15 PM,41.0,39.2,93,29.91,10.0,North,5.8,-,N/A,,Overcast,350,2013-04-10 22:15:00
5:35 PM,41.0,39.2,93,29.97,10.0,West,6.9,-,N/A,,Overcast,270,2013-04-10 22:35:00
5:55 PM,41.0,39.2,93,29.91,5.0,NE,5.8,-,N/A,Rain,Rain,50,2013-04-10 22:55:00
6:15 PM,41.0,41.0,100,29.86,5.0,NE,5.8,-,N/A,Rain,Light Rain,50,2013-04-10 23:15:00
6:35 PM,42.8,41.0,93,29.84,7.0,East,4.6,-,N/A,,Overcast,80,2013-04-10 23:35:00
6:55 PM,42.8,42.8,100,29.83,10.0,ENE,6.9,-,N/A,,Overcast,60,2013-04-10 23:55:00
7:15 PM,42.8,42.8,100,29.85,10.0,NE,8.1,-,N/A,,Overcast,50,2013-04-11 00:15:00
7:35 PM,42.8,41.0,93,29.86,7.0,Calm,Calm,-,N/A,,Overcast,0,2013-04-11 00:35:00
7:55 PM,42.8,41.0,93,29.85,10.0,East,6.9,-,N/A,,Overcast,100,2013-04-11 00:55:00
8:15 PM,42.8,41.0,93,29.86,10.0,ENE,6.9,-,N/A,,Overcast,60,2013-04-11 01:15:00
8:35 PM,42.8,41.0,93,29.86,10.0,ENE,8.1,-,N/A,,Overcast,70,2013-04-11 01:35:00
8:55 PM,42.8,41.0,93,29.83,10.0,ENE,10.4,-,N/A,,Overcast,70,2013-04-11 01:55:00
9:15 PM,42.8,41.0,93,29.83,7.0,ENE,8.1,-,N/A,,Overcast,60,2013-04-11 02:15:00
9:35 PM,42.8,41.0,93,29.84,7.0,ENE,5.8,-,N/A,,Overcast,70,2013-04-11 02:35:00
9:55 PM,42.8,41.0,93,29.84,7.0,East,4.6,-,N/A,,Overcast,100,2013-04-11 02:55:00
10:15 PM,41.0,41.0,100,29.83,7.0,East,8.1,-,N/A,,Overcast,80,2013-04-11 03:15:00
10:35 PM,41.0,41.0,100,29.83,7.0,ESE,6.9,-,N/A,Rain,Light Rain,110,2013-04-11 03:35:00
10:55 PM,41.0,41.0,100,29.84,5.0,ENE,5.8,-,N/A,Rain,Light Rain,70,2013-04-11 03:55:00
11:15 PM,41.0,41.0,100,29.87,5.0,NE,3.5,-,N/A,Rain,Rain,50,2013-04-11 04:15:00
11:35 PM,41.0,41.0,100,29.84,7.0,NE,11.5,-,N/A,Rain,Heavy Rain,50,2013-04-11 04:35:00
11:55 PM,41.0,41.0,100,29.82,5.0,NE,8.1,18.4,N/A,Rain,Rain,40,2013-04-11 04:55:00